#timestamp,LO_Frequency,Hit 
1501812015.6,286046998.1,N
1501812035.4,286047000.7,N
1501812055.2,286047000.8,N
1501812075.1,286047000.4,N
1501812076.0,286047000.4,N
1501812095.8,286046998.1,N
1501812115.6,286046997.2,N
1501812135.0,286046995.5,N
1501812135.9,286046995.5,N
1501812155.8,286046995.3,N
1501812175.6,286046998.0,N
1501812195.4,286046999.4,N
1501812215.2,286046999.2,N
1501812235.1,286046996.2,N
1501812236.0,286046996.2,N
1501812255.8,286046994.9,N
1501812275.6,286046996.8,N
1501812295.5,286046998.9,N
1501812315.3,286046998.5,N
1501812335.1,286046996.9,N
1501812355.9,286046997.0,N
1501812375.7,286046996.5,N
1501812395.5,286046998.4,N
1501812415.4,286046996.5,N
1501812435.2,286046995.2,N
1501812455.0,286046996.2,N
1501812455.9,286046996.2,N
1501812475.8,286046997.9,N
1501812495.6,286046997.3,N
1501812515.4,286046993.5,P
1501812535.3,286046996.5,N
1501812555.1,286046999.1,N
1501812575.8,286046997.3,N
1501812595.7,286046995.1,N
1501812615.5,286046993.3,P
1501812635.5,286046998.8,N
1501812655.4,286046997.8,N
1501812675.2,286046996.9,N
1501812695.0,286046999.3,N
1501812695.9,286046999.3,N
1501812715.8,286046998.6,N
1501812735.6,286046998.0,N
1501812755.4,286046995.6,N
1501812775.3,286046995.0,N
1501812795.1,286046993.5,P
1501812815.8,286046997.9,N
1501812835.7,286046995.7,N
1501812855.5,286046998.9,N
1501812875.3,286046997.2,N
1501812895.2,286046997.3,N
1501812915.9,286046999.0,N
1501812935.7,286046999.1,N
1501812955.6,286046998.6,N
1501812975.4,286047000.8,N
1501812995.2,286047000.4,N
1501813015.1,286047007.5,P
1501813016.0,286047007.5,N
1501813035.8,286047007.8,N
1501813055.6,286047007.3,N
1501813075.5,286047007.0,N
1501813095.3,286047005.3,N
1501813115.1,286047008.5,N
1501813135.9,286047008.8,N
1501813155.7,286047005.1,N
1501813175.5,286047005.5,N
1501813195.3,286047005.2,N
1501813215.2,286047003.1,N
1501813235.9,286047007.2,N
1501813255.7,286047003.1,N
1501813275.6,286047003.2,N
1501813295.4,286047002.0,N
1501813315.2,286047004.1,N
1501813335.1,286047002.1,N
1501813336.0,286047002.1,N
1501813355.8,286047002.1,N
1501813375.6,286047003.9,N
1501813395.5,286047002.6,N
1501813415.3,286046998.3,N
1501813435.1,286046998.2,N
1501813455.8,286046998.2,N
1501813475.7,286046997.4,N
1501813495.5,286046996.7,N
1501813515.3,286046998.4,N
1501813535.2,286046996.9,N
1501813555.9,286047002.3,N
1501813575.7,286047001.7,N
1501813595.6,286047003.9,N
1501813615.4,286047002.3,N
1501813635.2,286047000.4,N
1501813655.1,286047002.5,N
1501813656.0,286047002.5,N
1501813675.8,286047006.0,N
1501813695.5,286047003.3,N
1501813715.3,286047005.1,N
1501813735.1,286047006.0,N
1501813755.8,286047004.8,N
1501813775.7,286047005.3,N
1501813795.5,286047005.3,N
1501813815.3,286047007.4,N
1501813835.2,286047006.1,N
1501813855.9,286047007.0,N
1501813875.7,286047006.8,N
1501813895.6,286047004.9,N
1501813915.4,286047007.0,N
1501813935.2,286047005.0,N
1501813955.1,286047005.1,N
1501813956.0,286047005.1,N
1501813975.8,286047003.0,N
1501813995.6,286047002.9,N
1501814015.5,286047005.3,N
1501814035.3,286047006.7,N
1501814055.1,286047006.4,N
1501814075.9,286047010.8,P
1501814095.7,286047003.3,N
1501814115.5,286047001.9,N
1501814135.4,286047001.3,N
1501814155.2,286047005.8,N
1501814175.0,286047007.6,N
1501814175.9,286047007.6,N
1501814195.8,286047003.5,N
1501814215.6,286047003.6,N
1501814235.4,286047005.2,N
1501814255.2,286047007.1,N
1501814275.1,286047005.2,N
1501814276.0,286047005.2,N
1501814295.8,286047004.8,N
1501814315.6,286047006.9,N
1501814335.5,286047006.6,N
1501814355.3,286047006.4,N
1501814375.1,286047006.1,N
1501814395.9,286047006.9,P
1501814415.7,286047000.2,N
1501814435.5,286047001.5,N
1501814455.4,286047001.4,N
1501814475.2,286047004.4,N
1501814495.0,286047001.8,N
1501814495.9,286047001.8,N
1501814515.8,286047004.2,N
1501814535.6,286047004.4,N
1501814555.4,286047001.4,N
1501814575.3,286047003.8,N
1501814595.1,286047003.3,N
1501814596.0,286047003.3,N
1501814615.8,286047003.2,N
1501814635.7,286047001.9,N
1501814655.5,286047001.6,N
1501814675.3,286047000.0,N
1501814695.2,286046998.1,N
1501814715.9,286047001.2,N
1501814735.7,286047002.0,N
1501814755.6,286047004.4,N
1501814775.4,286047004.0,N
1501814795.2,286047004.3,N
1501814815.0,286047004.2,N
1501814816.0,286047004.2,N
1501814835.8,286047003.9,N
1501814855.6,286047001.9,N
1501814875.4,286046999.9,N
1501814895.3,286046999.7,N
1501814915.1,286047001.8,N
1501814935.8,286047002.7,N
1501814955.7,286047004.2,N
1501814975.5,286047001.3,N
1501814995.3,286047001.9,N
1501815015.2,286047005.9,P
1501815035.0,286047002.2,N
1501815035.9,286047002.2,N
1501815055.8,286047001.8,N
1501815075.6,286047000.4,N
1501815095.4,286047000.1,N
1501815115.3,286046999.7,N
1501815135.1,286047002.8,N
1501815136.0,286047002.8,N
1501815155.8,286047002.1,N
1501815175.7,286047001.9,N
1501815195.5,286047001.7,N
1501815215.3,286047004.2,N
1501815235.1,286047001.9,N
1501815255.9,286047004.0,N
1501815275.7,286047005.1,P
1501815295.6,286046999.9,N
1501815315.4,286047002.7,N
1501815335.2,286047001.8,N
1501815355.0,286047002.6,N
1501815355.9,286047002.6,N
1501815375.8,286047003.5,N
1501815395.6,286047003.5,N
1501815415.4,286047003.4,N
1501815435.3,286047004.7,P
1501815455.1,286047003.4,P
1501815475.8,286047005.4,P
1501815495.7,286047005.3,P
1501815515.5,286047000.3,N
1501815535.3,286047001.0,N
1501815555.2,286046999.4,N
1501815575.0,286046999.9,N
1501815575.9,286046999.9,N
1501815595.7,286047001.0,N
